Location: Unspecified
(0.0000°N, 0.0000°E)
Time: 00:23:15
(UTC+00:00)

A-11 Canister half - Pass Details

Date: 13 February 2023
Orbit: 1526 x 1682 km, 47.3° (Epoch: 29 March)

Event Time Altitude Azimuth Distance (km) Brightness Sun altitude
Rises 13:52:03 0° 286° (WNW) 4,810 11.9 62.3°
Reaches altitude 10° 13:56:17 10° 270° (W) 3,853 11.7 61.4°
Maximum altitude 14:02:58 20° 226° (SW) 3,149 11.5 59.9°
Drops below altitude 10° 14:09:49 10° 183° (S) 3,927 11.5 58.4°
Sets 14:14:16 0° 166° (SSE) 4,929 11.7 57.4°
